CZ-6A DEB, 60620

Orbit data source: Space-Track

CZ-6A DEB, 60620 is space debris in LEO originally from a launch on Tue, 06 Aug 2024 UTC launched from the Taiyaun Space Center, China (TSC). Debris objects in space refer to the collection of defunct objects orbiting the Earth. Examples of debris include non-operational satellites, rocket bodies, and fragments generated from explosions, collisions, or faulty payload assembly.

Loading next visibility...
Identifier
60620, 2024-140V
Orbit
LEO
Country
Flag of CNCN / PRC
Related business
Manufacturer
SAST
Mission
Spacecraft
Bus & Motor
Unknown
Mass
Unknown
Launch date (UTC)
2024-08-06 (2 years ago)
Launch vehicle
Unknown
Launch site
Taiyaun Space Center, China (TSC)
Object type
Payload
Rocket body
Debris
Shape & HBR
Unknown shape, 1.1 m
Radar Cross Section
Large (>1 m²)

Expand to show TLE details & history
Last TLE update: 14 hours ago

TLE from 14 hours ago
0 CZ-6A DEB
1 60620U 24140V   26171.28776543  .00000270  00000-0  57028-4 0  9999
2 60620  89.0253 272.0583 0110260 252.1206 106.7953 14.52707010 98957
Epoch: 2026-06-20T06:54Z
TLE epoch observation values (Epoch: 2026-06-20T06:54:22.933Z)
Latitude
-0.00005°
Longitude
-100.0418°
Altitude
743.317 km
Speed
7.471 km/s
True Right ascension
18h 08m 13s
True Declination
0° 00' 00"
Sunlit
Object was in full shadow at epoch
Visualization orbit readout
Latitude
Unknown
Longitude
Unknown
Altitude
Unknown
Speed
Unknown
Apparent Right ascension
Unknown
Apparent Declination
Unknown
Sunlit
N/A
Visualization observer readout
Local Sidereal Time
07:22:33
Azimuth
Unknown
Elevation
Unknown
Doppler factor
Unknown
Orbital elements
Apogee altitude
791.919 km
Perigee altitude
635.53 km
Semi-major axis
7,091.862 km
Eccentricity
0.01103
Inclination
89.0253°
RAAN
272.0583°
Arg. of periapsis
252.1206°
True anomaly
108°
Mean anomaly
106.7953°
Eccentric anomaly
107.39814°
Mean motion
3.63415 °/min
Orbital period
99.06 mins
BSTAR
0.000057028
Loading maneuver chart data...
Computing Atmospheric mass density...
Loading historical data...
Loading historical data...
Loading historical data...
Loading historical data...
Loading historical data...
Loading historical data...
Loading historical data...

Documentation

Showing up to 5 results
|